CZ-11 R/B (44317 NORAD) Tracking and Keplerian Element Data

This shows tracking and keplerian element data for the satellite.

Feedback or suggestion? Click here.




ElementValue
Catalog44317
NameCZ-11 R/B
Epoch Orbit461
Epoch Day186.21169146
Epoch Year2019
RAAN133.3125
Inclination44.9138
Eccentricity0.0261365
Argument of Perigee117.1027
Mean Anonmoly245.6769
Mean Motion15.39073725
Decay Rate0.00015276
L11 44317U 19032H 19186.21169146 .00015276 86616-5 12880-3 0 9994
L22 44317 44.9138 133.3125 0261365 117.1027 245.6769 15.39073725 4612

Live tracking and technical data element details for CZ-11 R/B (NORAD 44317). CZ-11 R/B can be tracked NOW for your location showing map with azimuth and elevation plus other details from your city location.

Track the satellite on the map from your city or location and see movement details for azimuth, elevation, latitude, longitude, range, height, and movement on the map or in text.







IsCatalogInMostPopularTable: catalog: 44317, numindb: 9
Update: records affected: 1



GetName: 44317 CZ-11 R/B

Hit Count: updated at: Sun, 21 Jul 2019 21:37:52 GMT